Torna al catalogo

QIANFAN-11

AttivoComunicazioniPO
NORAD 60389·PAYLOAD·🇨🇳 China

Lanciato Aug 6, 2024 da Taiyuan Satellite Launch Center

Loading…

Prossimi Passaggi (prossime 24 ore)

TLE

AggiornatoSource: Space-Track

Epoca: Sep 14, 2026, 12:52 UTC

1 60389U 24140L   26257.53616987  .00000011  00000-0 -20873-5 0  9992
2 60389  88.9605 270.4733 0016222 117.2953 242.9852 13.51021059104353

Traccia QIANFAN-11 in tempo reale con AllMySat

Download on the App Store